Flag for Slovakia Weather past 2 weeks in Bratislava, Slovakia

Now
54 °F

Clear.


Feels Like: 54 °F
Forecast: 55 / 68 °F
Wind: 1 mph from North

Location: Bratislava Ivanka

Current Time: Sep 17, 2014 at 4:13:29 AM

Latest Report: Sep 17, 2014 at 4:00 AM


Visibility: 10 mi

Pressure: 30.09 "Hg

Humidity: 94%

Dew point: 52 °F

Location of BratislavaLocation

Historic Weather in Bratislava — Graph

°F

Bratislava temperature yesterday

Maximum temperature yesterday: 70 °F (at 2:30 PM)
Minimum temperature yesterday: 55 °F (at 11:30 PM)
Average temperature yesterday: 63 °F

Past Weeks' High & Low Weather Summary

 TemperatureHumidityPressure
High81 °F (Sep 4, 4:30 PM)100% (Sep 15, 4:00 AM)30.12 "Hg (Sep 15, 4:00 AM)
Low55 °F (Sep 8, 5:30 AM)42% (Sep 5, 5:00 PM)29.77 "Hg (Sep 12, 4:30 AM)
Average64 °F80%29.99 "Hg
* Reported Sep 2 3:00 AM — Sep 17 3:00 AM, Bratislava, Weather by CustomWeather, © 2014

Note: Actual official high and low records may vary slightly from our data, if they occured in-between our weather recording intervals... More about our weather records

Advertising

Bratislava weather history for previous 24 hours

 ConditionsComfort  
Time TempWeatherWind HumidityBarometerVisibility
3:00 AM
Sep 17
55 °FClear.2 mph94%30.09 "Hg10 mi
2:30 AM55 °FClear.2 mph94%30.09 "Hg10 mi
2:00 AM55 °FClear.No wind94%30.09 "Hg10 mi
1:30 AM55 °FClear.No wind94%30.09 "Hg10 mi
1:00 AM55 °FClear.1 mph94%30.09 "Hg10 mi
12:30 AM55 °FClear.1 mph94%30.09 "Hg10 mi
12:00 AM55 °FClear.No wind94%30.12 "Hg10 mi
11:30 PM
Sep 16
55 °FClear.1 mph94%30.09 "Hg10 mi
11:00 PM57 °FClear.2 mph94%30.09 "Hg10 mi
10:30 PM59 °FClear.3 mph94%30.09 "Hg10 mi
10:00 PM59 °FClear.No wind94%30.12 "Hg10 mi
9:30 PM61 °FClear.No wind88%30.09 "Hg10 mi
9:00 PM63 °FClear.No wind83%30.09 "Hg10 mi
8:30 PM61 °FClear.1 mph88%30.09 "Hg10 mi
8:00 PM63 °FSunny.2 mph83%30.09 "Hg10 mi
7:30 PM64 °FSunny.2 mph78%30.09 "Hg10 mi
7:00 PM64 °FSunny.3 mph83%30.09 "Hg10 mi
6:30 PM66 °FSunny.1 mph73%30.09 "Hg10 mi
6:00 PM68 °FPassing clouds.1 mph69%30.09 "HgN/A
5:30 PM68 °FPassing clouds.1 mph69%30.09 "HgN/A
5:00 PM68 °FPassing clouds.3 mph64%30.09 "HgN/A
4:30 PM70 °FPassing clouds.2 mph60%30.09 "HgN/A
4:00 PM68 °FPassing clouds.3 mph69%30.09 "HgN/A
3:30 PM68 °FScattered clouds.6 mph69%30.09 "HgN/A
3:00 PM70 °FScattered clouds.6 mph69%30.09 "HgN/A
2:30 PM70 °FScattered clouds.5 mph64%30.09 "HgN/A
2:00 PM68 °FScattered clouds.5 mph69%30.09 "HgN/A
1:30 PM68 °FBroken clouds.3 mph69%30.09 "HgN/A
1:00 PM68 °FScattered clouds.3 mph73%30.12 "HgN/A
12:30 PM68 °FPassing clouds.3 mph69%30.12 "HgN/A
12:00 PM68 °FPassing clouds.3 mph64%30.12 "HgN/A
11:30 AM66 °FPassing clouds.2 mph78%30.09 "HgN/A
11:00 AM64 °FPassing clouds.3 mph78%30.09 "HgN/A
10:30 AM63 °FSunny.5 mph83%30.09 "Hg10 mi
10:00 AM63 °FSunny.6 mph83%30.09 "Hg10 mi
9:30 AM61 °FSunny.5 mph88%30.09 "Hg10 mi
9:00 AM61 °FSunny.3 mph88%30.09 "Hg10 mi
8:30 AM59 °FSunny.5 mph94%30.09 "Hg10 mi
8:00 AM59 °FSunny.3 mph94%30.09 "Hg10 mi
7:30 AM59 °FSunny.1 mph94%30.09 "Hg10 mi
7:00 AM59 °FClear.No wind88%30.07 "Hg10 mi
6:30 AM59 °FClear.1 mph88%30.07 "Hg10 mi
6:00 AM59 °FClear.1 mph88%30.07 "Hg10 mi
5:30 AM59 °FClear.2 mph88%30.07 "Hg10 mi
5:00 AM59 °FClear.5 mph94%30.07 "Hg10 mi
4:30 AM59 °FClear.1 mph88%30.07 "Hg10 mi
4:00 AM59 °FClear.5 mph88%30.07 "Hg10 mi
Weather by CustomWeather, © 2014

See weather overviewHow to use our weather pages